Location: Unspecified
(0.0000°N, 0.0000°E)
Time: 19:15:06
(UTC+00:00)

BlueWalker 3 - Pass Details

Date: 22 March 2026
Orbit: 449 x 457 km, 53.2° (Epoch: 21 April)

Event Time Altitude Azimuth Distance (km) Brightness Sun altitude
Exits shadow 04:24:25 - 11° (NNE) 2,002 5.1 -25.6°
Reaches altitude 10° 04:26:23 10° 36° (NE) 1,580 4.9 -25.1°
Maximum altitude 04:27:35 11° 55° (NE) 1,499 5.0 -24.8°
Drops below altitude 10° 04:28:46 10° 75° (ENE) 1,581 5.5 -24.6°
Sets 04:32:13 0° 111° (ESE) 2,454 6.6 -23.7°
